Time,TemperatureF,DewpointF,PressureIn,WindDirection,WindDirectionDegrees,WindSpeedMPH,WindSpeedGustMPH,Humidity,HourlyPrecipIn,Conditions,Clouds,dailyrainin,SoftwareType,DateUTC
2013-03-16 00:00:00,48.0,31.7,29.83,WNW,284,5.0,5.0,53,0.00,,,0.00,Wunderground v.1.15,2013-03-16 04:00:00,
2013-03-16 00:02:00,48.0,31.7,29.82,WNW,294,5.0,14.0,53,0.00,,,0.00,Wunderground v.1.15,2013-03-16 04:02:00,
2013-03-16 00:04:00,48.0,31.7,29.82,WNW,284,6.0,14.0,53,0.00,,,0.00,Wunderground v.1.15,2013-03-16 04:04:00,
2013-03-16 00:09:00,48.0,31.7,29.82,West,281,5.0,14.0,53,0.00,,,0.00,Wunderground v.1.15,2013-03-16 04:09:00,
2013-03-16 00:11:00,48.0,31.7,29.82,WNW,292,5.0,5.0,53,0.00,,,0.00,Wunderground v.1.15,2013-03-16 04:11:00,
2013-03-16 00:16:00,48.0,31.7,29.82,WNW,294,5.0,6.0,53,0.00,,,0.00,Wunderground v.1.15,2013-03-16 04:16:00,
2013-03-16 00:22:00,47.9,31.6,29.82,WNW,292,5.0,6.0,53,0.00,,,0.00,Wunderground v.1.15,2013-03-16 04:22:00,
2013-03-16 00:27:00,48.0,31.7,29.82,West,279,5.0,6.0,53,0.00,,,0.00,Wunderground v.1.15,2013-03-16 04:27:00,
2013-03-16 00:32:00,48.0,31.7,29.82,WNW,294,5.0,6.0,53,0.00,,,0.00,Wunderground v.1.15,2013-03-16 04:32:00,
2013-03-16 00:37:00,48.2,31.9,29.82,WNW,286,5.0,6.0,53,0.00,,,0.00,Wunderground v.1.15,2013-03-16 04:37:00,
2013-03-16 00:42:00,48.2,31.9,29.82,WNW,286,5.0,6.0,53,0.00,,,0.00,Wunderground v.1.15,2013-03-16 04:42:00,
2013-03-16 00:47:00,48.2,31.9,29.82,WNW,292,5.0,6.0,53,0.00,,,0.00,Wunderground v.1.15,2013-03-16 04:47:00,
2013-03-16 00:52:00,48.3,31.9,29.82,WNW,289,6.0,6.0,53,0.00,,,0.00,Wunderground v.1.15,2013-03-16 04:52:00,
2013-03-16 00:58:00,48.3,31.9,29.81,WNW,286,6.0,9.0,53,0.00,,,0.00,Wunderground v.1.15,2013-03-16 04:58:00,
2013-03-16 01:03:00,48.0,31.7,29.81,WNW,291,6.0,7.0,53,0.00,,,0.00,Wunderground v.1.15,2013-03-16 05:03:00,
2013-03-16 01:09:00,48.0,32.1,29.81,WNW,284,6.0,8.0,54,0.00,,,0.00,Wunderground v.1.15,2013-03-16 05:09:00,
2013-03-16 01:15:00,47.7,31.9,29.81,West,275,6.0,7.0,54,0.00,,,0.00,Wunderground v.1.15,2013-03-16 05:15:00,
2013-03-16 01:20:00,47.6,32.2,29.81,West,279,6.0,6.0,55,0.00,,,0.00,Wunderground v.1.15,2013-03-16 05:20:00,
2013-03-16 01:26:00,47.6,32.2,29.81,West,269,6.0,7.0,55,0.00,,,0.00,Wunderground v.1.15,2013-03-16 05:26:00,
2013-03-16 01:31:00,47.6,32.7,29.81,WNW,302,6.0,6.0,56,0.00,,,0.00,Wunderground v.1.15,2013-03-16 05:31:00,
2013-03-16 01:36:00,47.6,32.2,29.81,West,281,6.0,9.0,55,0.00,,,0.00,Wunderground v.1.15,2013-03-16 05:36:00,
2013-03-16 01:41:00,47.6,32.2,29.81,WNW,290,6.0,6.0,55,0.00,,,0.00,Wunderground v.1.15,2013-03-16 05:41:00,
2013-03-16 01:46:00,47.6,32.2,29.81,WNW,283,5.0,6.0,55,0.00,,,0.00,Wunderground v.1.15,2013-03-16 05:46:00,
2013-03-16 01:52:00,47.3,32.4,29.81,WNW,288,5.0,5.0,56,0.00,,,0.00,Wunderground v.1.15,2013-03-16 05:52:00,
2013-03-16 01:57:00,47.3,32.4,29.81,West,274,5.0,7.0,56,0.00,,,0.00,Wunderground v.1.15,2013-03-16 05:57:00,
2013-03-16 02:02:00,47.3,32.4,29.81,WNW,284,6.0,11.0,56,0.00,,,0.00,Wunderground v.1.15,2013-03-16 06:02:00,
2013-03-16 02:07:00,47.3,32.4,29.81,West,280,6.0,11.0,56,0.00,,,0.00,Wunderground v.1.15,2013-03-16 06:07:00,
2013-03-16 02:12:00,47.4,32.5,29.81,WNW,286,6.0,6.0,56,0.00,,,0.00,Wunderground v.1.15,2013-03-16 06:12:00,
2013-03-16 02:18:00,47.6,32.7,29.81,WNW,289,6.0,7.0,56,0.00,,,0.00,Wunderground v.1.15,2013-03-16 06:18:00,
2013-03-16 02:23:00,47.9,32.9,29.81,WNW,300,5.0,7.0,56,0.00,,,0.00,Wunderground v.1.15,2013-03-16 06:23:00,
2013-03-16 02:28:00,47.9,32.9,29.81,WNW,287,5.0,7.0,56,0.00,,,0.00,Wunderground v.1.15,2013-03-16 06:28:00,
2013-03-16 02:34:00,47.9,32.9,29.81,WNW,289,5.0,5.0,56,0.00,,,0.00,Wunderground v.1.15,2013-03-16 06:34:00,
2013-03-16 02:39:00,48.2,32.8,29.80,WNW,298,4.0,6.0,55,0.00,,,0.00,Wunderground v.1.15,2013-03-16 06:39:00,
2013-03-16 02:44:00,48.2,32.8,29.80,WSW,247,4.0,11.0,55,0.00,,,0.00,Wunderground v.1.15,2013-03-16 06:44:00,
2013-03-16 02:49:00,48.2,32.8,29.80,WNW,296,4.0,11.0,55,0.00,,,0.00,Wunderground v.1.15,2013-03-16 06:49:00,
2013-03-16 02:54:00,48.2,33.2,29.81,WNW,288,5.0,8.0,56,0.00,,,0.00,Wunderground v.1.15,2013-03-16 06:54:00,
2013-03-16 03:00:00,48.2,33.2,29.80,WNW,291,5.0,5.0,56,0.00,,,0.00,Wunderground v.1.15,2013-03-16 07:00:00,
2013-03-16 03:06:00,48.2,33.7,29.80,WNW,285,4.0,14.0,57,0.00,,,0.00,Wunderground v.1.15,2013-03-16 07:06:00,
2013-03-16 03:11:00,48.0,33.5,29.80,WNW,291,4.0,5.0,57,0.00,,,0.00,Wunderground v.1.15,2013-03-16 07:11:00,
2013-03-16 03:16:00,48.0,33.5,29.80,WNW,297,4.0,5.0,57,0.00,,,0.00,Wunderground v.1.15,2013-03-16 07:16:00,
2013-03-16 03:22:00,48.0,33.5,29.80,West,278,4.0,5.0,57,0.00,,,0.00,Wunderground v.1.15,2013-03-16 07:22:00,
2013-03-16 09:57:00,44.8,34.5,29.78,SSW,207,1.0,3.0,67,0.00,,,0.00,Wunderground v.1.15,2013-03-16 13:57:00,
2013-03-16 10:02:00,45.5,34.4,29.78,SSW,207,0.0,4.0,65,0.00,,,0.00,Wunderground v.1.15,2013-03-16 14:02:00,
2013-03-16 10:07:00,46.1,34.2,29.78,SSE,167,0.0,4.0,63,0.00,,,0.00,Wunderground v.1.15,2013-03-16 14:07:00,
2013-03-16 10:13:00,46.1,33.4,29.78,South,185,1.0,1.0,61,0.00,,,0.00,Wunderground v.1.15,2013-03-16 14:13:00,
2013-03-16 10:18:00,46.1,33.4,29.78,South,169,1.0,2.0,61,0.00,,,0.00,Wunderground v.1.15,2013-03-16 14:18:00,
2013-03-16 10:23:00,46.0,33.3,29.78,SW,215,2.0,2.0,61,0.00,,,0.00,Wunderground v.1.15,2013-03-16 14:23:00,
2013-03-16 10:28:00,46.0,32.9,29.78,SE,146,2.0,4.0,60,0.00,,,0.00,Wunderground v.1.15,2013-03-16 14:28:00,
2013-03-16 10:33:00,46.0,33.7,29.78,SE,144,1.0,2.0,62,0.00,,,0.00,Wunderground v.1.15,2013-03-16 14:33:00,
2013-03-16 10:39:00,45.8,33.1,29.78,SSW,211,1.0,3.0,61,0.00,,,0.00,Wunderground v.1.15,2013-03-16 14:39:00,
2013-03-16 10:44:00,46.0,33.3,29.77,South,170,1.0,3.0,61,0.00,,,0.00,Wunderground v.1.15,2013-03-16 14:44:00,
2013-03-16 10:50:00,46.1,33.8,29.77,South,170,1.0,2.0,62,0.00,,,0.00,Wunderground v.1.15,2013-03-16 14:50:00,
2013-03-16 10:55:00,46.2,33.5,29.77,South,170,1.0,2.0,61,0.00,,,0.00,Wunderground v.1.15,2013-03-16 14:55:00,
2013-03-16 11:00:00,46.4,33.7,29.76,SSE,164,1.0,2.0,61,0.00,,,0.00,Wunderground v.1.15,2013-03-16 15:00:00,
2013-03-16 11:06:00,46.2,33.5,29.76,SSE,153,2.0,4.0,61,0.00,,,0.00,Wunderground v.1.15,2013-03-16 15:06:00,
2013-03-16 11:12:00,46.2,33.9,29.76,South,188,2.0,2.0,62,0.00,,,0.00,Wunderground v.1.15,2013-03-16 15:12:00,
2013-03-16 11:17:00,46.2,33.9,29.76,South,178,1.0,2.0,62,0.00,,,0.00,Wunderground v.1.15,2013-03-16 15:17:00,
2013-03-16 11:22:00,46.2,33.9,29.75,South,178,1.0,1.0,62,0.00,,,0.00,Wunderground v.1.15,2013-03-16 15:22:00,
2013-03-16 11:28:00,46.4,35.3,29.74,East,92,0.0,3.0,65,0.00,,,0.00,Wunderground v.1.15,2013-03-16 15:28:00,
2013-03-16 11:33:00,46.4,35.3,29.76,South,186,1.0,2.0,65,0.00,,,0.00,Wunderground v.1.15,2013-03-16 15:33:00,
2013-03-16 11:39:00,46.2,35.1,29.75,South,190,0.0,2.0,65,0.00,,,0.00,Wunderground v.1.15,2013-03-16 15:39:00,
2013-03-16 11:44:00,46.2,35.1,29.75,South,174,0.0,0.0,65,0.00,,,0.00,Wunderground v.1.15,2013-03-16 15:44:00,
2013-03-16 11:50:00,46.4,34.9,29.75,East,84,0.0,1.0,64,0.00,,,0.00,Wunderground v.1.15,2013-03-16 15:50:00,
2013-03-16 11:55:00,46.4,34.5,29.74,ENE,66,0.0,1.0,63,0.00,,,0.00,Wunderground v.1.15,2013-03-16 15:55:00,
2013-03-16 12:00:00,46.5,34.2,29.73,ENE,73,1.0,2.0,62,0.00,,,0.00,Wunderground v.1.15,2013-03-16 16:00:00,
2013-03-16 12:06:00,46.7,34.8,29.73,SW,225,1.0,5.0,63,0.00,,,0.00,Wunderground v.1.15,2013-03-16 16:06:00,
2013-03-16 12:12:00,46.8,34.5,29.73,NE,42,0.0,1.0,62,0.00,,,0.00,Wunderground v.1.15,2013-03-16 16:12:00,
2013-03-16 12:17:00,47.0,35.0,29.73,South,181,0.0,1.0,63,0.00,,,0.00,Wunderground v.1.15,2013-03-16 16:17:00,
2013-03-16 12:22:00,47.0,34.6,29.73,ENE,60,0.0,2.0,62,0.00,,,0.00,Wunderground v.1.15,2013-03-16 16:22:00,
2013-03-16 12:27:00,47.1,34.3,29.73,East,84,1.0,2.0,61,0.00,,,0.00,Wunderground v.1.15,2013-03-16 16:27:00,
2013-03-16 12:32:00,47.3,34.5,29.73,ENE,59,1.0,3.0,61,0.00,,,0.00,Wunderground v.1.15,2013-03-16 16:32:00,
2013-03-16 12:38:00,47.3,34.5,29.73,ESE,120,0.0,3.0,61,0.00,,,0.00,Wunderground v.1.15,2013-03-16 16:38:00,
2013-03-16 12:43:00,47.3,34.1,29.73,South,171,0.0,0.0,60,0.00,,,0.00,Wunderground v.1.15,2013-03-16 16:43:00,
2013-03-16 12:48:00,47.3,34.5,29.72,SSE,157,1.0,2.0,61,0.00,,,0.00,Wunderground v.1.15,2013-03-16 16:48:00,
2013-03-16 12:53:00,47.4,34.6,29.72,SSE,158,1.0,1.0,61,0.00,,,0.00,Wunderground v.1.15,2013-03-16 16:53:00,
2013-03-16 12:58:00,47.4,34.6,29.71,SSE,158,0.0,2.0,61,0.00,,,0.00,Wunderground v.1.15,2013-03-16 16:58:00,
2013-03-16 13:03:00,47.7,34.9,29.71,ESE,119,1.0,7.0,61,0.00,,,0.00,Wunderground v.1.15,2013-03-16 17:03:00,
2013-03-16 13:09:00,48.5,35.2,29.70,ENE,77,1.0,7.0,60,0.00,,,0.00,Wunderground v.1.15,2013-03-16 17:09:00,
2013-03-16 13:15:00,48.9,35.2,29.70,SSW,199,1.0,4.0,59,0.00,,,0.00,Wunderground v.1.15,2013-03-16 17:15:00,
2013-03-16 13:20:00,48.9,34.8,29.70,South,189,1.0,3.0,58,0.00,,,0.00,Wunderground v.1.15,2013-03-16 17:20:00,
2013-03-16 13:25:00,48.9,34.8,29.69,ENE,75,1.0,3.0,58,0.00,,,0.00,Wunderground v.1.15,2013-03-16 17:25:00,
2013-03-16 13:31:00,49.1,35.8,29.68,NE,46,0.0,4.0,60,0.00,,,0.00,Wunderground v.1.15,2013-03-16 17:31:00,
2013-03-16 13:36:00,49.5,35.3,29.68,SSE,157,1.0,4.0,58,0.00,,,0.00,Wunderground v.1.15,2013-03-16 17:36:00,
2013-03-16 13:42:00,50.1,35.9,29.68,SE,126,1.0,2.0,58,0.00,,,0.00,Wunderground v.1.15,2013-03-16 17:42:00,
2013-03-16 13:47:00,51.0,35.8,29.67,ESE,119,1.0,3.0,56,0.00,,,0.00,Wunderground v.1.15,2013-03-16 17:47:00,
2013-03-16 13:52:00,51.6,35.9,29.67,NE,43,2.0,3.0,55,0.00,,,0.00,Wunderground v.1.15,2013-03-16 17:52:00,
2013-03-16 13:57:00,52.5,35.8,29.67,East,94,2.0,4.0,53,0.00,,,0.00,Wunderground v.1.15,2013-03-16 17:57:00,
2013-03-16 14:02:00,53.2,36.5,29.66,SE,146,2.0,4.0,53,0.00,,,0.00,Wunderground v.1.15,2013-03-16 18:02:00,
2013-03-16 14:08:00,53.9,37.1,29.67,East,99,2.0,4.0,53,0.00,,,0.00,Wunderground v.1.15,2013-03-16 18:08:00,
2013-03-16 14:13:00,53.9,36.7,29.67,South,169,2.0,5.0,52,0.00,,,0.00,Wunderground v.1.15,2013-03-16 18:13:00,
2013-03-16 14:19:00,53.5,37.7,29.67,South,169,2.0,5.0,55,0.00,,,0.00,Wunderground v.1.15,2013-03-16 18:19:00,
2013-03-16 14:24:00,53.5,37.3,29.67,East,92,2.0,9.0,54,0.00,,,0.00,Wunderground v.1.15,2013-03-16 18:24:00,
2013-03-16 14:29:00,53.3,37.1,29.67,ENE,72,2.0,9.0,54,0.00,,,0.00,Wunderground v.1.15,2013-03-16 18:29:00,
2013-03-16 14:35:00,53.1,36.9,29.67,ENE,65,1.0,4.0,54,0.00,,,0.00,Wunderground v.1.15,2013-03-16 18:35:00,
2013-03-16 14:40:00,53.1,37.3,29.67,NE,44,1.0,1.0,55,0.00,,,0.00,Wunderground v.1.15,2013-03-16 18:40:00,
2013-03-16 14:46:00,53.3,37.1,29.66,East,79,1.0,3.0,54,0.00,,,0.00,Wunderground v.1.15,2013-03-16 18:46:00,
2013-03-16 14:52:00,53.3,36.6,29.66,NE,45,2.0,4.0,53,0.00,,,0.00,Wunderground v.1.15,2013-03-16 18:52:00,
2013-03-16 14:58:00,53.3,37.1,29.66,NE,48,1.0,4.0,54,0.00,,,0.00,Wunderground v.1.15,2013-03-16 18:58:00,
2013-03-16 15:04:00,53.3,37.1,29.66,NNE,13,1.0,9.0,54,0.00,,,0.00,Wunderground v.1.15,2013-03-16 19:04:00,
2013-03-16 15:09:00,53.2,37.4,29.66,East,82,1.0,9.0,55,0.00,,,0.00,Wunderground v.1.15,2013-03-16 19:09:00,
2013-03-16 15:14:00,53.2,37.4,29.65,NE,38,1.0,2.0,55,0.00,,,0.00,Wunderground v.1.15,2013-03-16 19:14:00,
2013-03-16 15:20:00,52.9,36.7,29.66,NNE,20,2.0,2.0,54,0.00,,,0.00,Wunderground v.1.15,2013-03-16 19:20:00,
2013-03-16 15:25:00,52.5,36.8,29.66,NE,47,2.0,5.0,55,0.00,,,0.00,Wunderground v.1.15,2013-03-16 19:25:00,
2013-03-16 15:30:00,51.9,36.7,29.67,ENE,69,3.0,6.0,56,0.00,,,0.00,Wunderground v.1.15,2013-03-16 19:30:00,
2013-03-16 15:37:00,50.5,36.3,29.67,East,80,3.0,7.0,58,0.00,,,0.00,Wunderground v.1.15,2013-03-16 19:37:00,
2013-03-16 15:43:00,49.1,36.2,29.67,NNE,19,4.0,6.0,61,0.00,,,0.00,Wunderground v.1.15,2013-03-16 19:43:00,
2013-03-16 15:48:00,48.3,36.3,29.66,ENE,73,4.0,8.0,63,0.00,,,0.00,Wunderground v.1.15,2013-03-16 19:48:00,
2013-03-16 15:54:00,47.6,35.6,29.67,ESE,109,4.0,9.0,63,0.00,,,0.00,Wunderground v.1.15,2013-03-16 19:54:00,
2013-03-16 15:59:00,47.1,35.5,29.68,ENE,74,4.0,9.0,64,0.00,,,0.00,Wunderground v.1.15,2013-03-16 19:59:00,
2013-03-16 16:05:00,46.5,35.4,29.68,North,355,4.0,6.0,65,0.00,,,0.00,Wunderground v.1.15,2013-03-16 20:05:00,
2013-03-16 16:10:00,46.2,35.5,29.69,NE,39,4.0,4.0,66,0.00,,,0.00,Wunderground v.1.15,2013-03-16 20:10:00,
2013-03-16 16:15:00,46.0,35.7,29.68,NE,48,4.0,10.0,67,0.00,,,0.00,Wunderground v.1.15,2013-03-16 20:15:00,
2013-03-16 16:20:00,45.7,35.7,29.68,ENE,74,3.0,4.0,68,0.00,,,0.00,Wunderground v.1.15,2013-03-16 20:20:00,
2013-03-16 16:25:00,45.4,35.8,29.69,NNE,31,3.0,7.0,69,0.00,,,0.00,Wunderground v.1.15,2013-03-16 20:25:00,
2013-03-16 16:31:00,45.1,35.9,29.69,ENE,63,2.0,2.0,70,0.00,,,0.00,Wunderground v.1.15,2013-03-16 20:31:00,
2013-03-16 16:37:00,44.6,36.1,29.69,NE,42,3.0,7.0,72,0.00,,,0.00,Wunderground v.1.15,2013-03-16 20:37:00,
2013-03-16 16:42:00,44.2,36.4,29.69,ENE,76,3.0,4.0,74,0.00,,,0.00,Wunderground v.1.15,2013-03-16 20:42:00,
2013-03-16 16:47:00,43.9,36.8,29.70,ENE,60,1.0,4.0,76,0.00,,,0.00,Wunderground v.1.15,2013-03-16 20:47:00,
2013-03-16 16:52:00,43.6,36.9,29.70,ENE,62,0.0,2.0,77,0.00,,,0.00,Wunderground v.1.15,2013-03-16 20:52:00,
2013-03-16 16:57:00,43.3,36.2,29.70,ENE,58,1.0,5.0,76,0.00,,,0.00,Wunderground v.1.15,2013-03-16 20:57:00,
2013-03-16 17:03:00,43.1,36.0,29.70,WNW,296,1.0,11.0,76,0.00,,,0.00,Wunderground v.1.15,2013-03-16 21:03:00,
2013-03-16 17:09:00,42.8,35.8,29.70,NNW,329,1.0,11.0,76,0.00,,,0.00,Wunderground v.1.15,2013-03-16 21:09:00,
2013-03-16 17:14:00,42.6,35.6,29.70,NNE,22,2.0,3.0,76,0.00,,,0.00,Wunderground v.1.15,2013-03-16 21:14:00,
2013-03-16 17:20:00,42.5,35.1,29.71,NE,55,3.0,3.0,75,0.00,,,0.00,Wunderground v.1.15,2013-03-16 21:20:00,
2013-03-16 17:25:00,42.3,35.3,29.71,ENE,57,2.0,4.0,76,0.00,,,0.00,Wunderground v.1.15,2013-03-16 21:25:00,
2013-03-16 17:31:00,42.2,35.2,29.71,NNW,335,1.0,4.0,76,0.00,,,0.00,Wunderground v.1.15,2013-03-16 21:31:00,
2013-03-16 17:37:00,41.9,34.9,29.72,ENE,61,1.0,4.0,76,0.00,,,0.00,Wunderground v.1.15,2013-03-16 21:37:00,
2013-03-16 17:42:00,41.8,34.8,29.72,North,350,1.0,4.0,76,0.00,,,0.00,Wunderground v.1.15,2013-03-16 21:42:00,
2013-03-16 17:48:00,41.8,34.8,29.73,NE,36,1.0,5.0,76,0.00,,,0.00,Wunderground v.1.15,2013-03-16 21:48:00,
2013-03-16 17:53:00,41.6,34.6,29.73,NNW,340,1.0,2.0,76,0.00,,,0.00,Wunderground v.1.15,2013-03-16 21:53:00,
2013-03-16 17:58:00,41.6,34.6,29.73,NE,46,1.0,3.0,76,0.00,,,0.00,Wunderground v.1.15,2013-03-16 21:58:00,
2013-03-16 18:04:00,41.5,35.2,29.75,NNW,329,0.0,10.0,78,0.00,,,0.00,Wunderground v.1.15,2013-03-16 22:04:00,
2013-03-16 18:09:00,41.3,35.6,29.75,NNW,343,0.0,10.0,80,0.00,,,0.00,Wunderground v.1.15,2013-03-16 22:09:00,
2013-03-16 18:14:00,40.9,35.2,29.75,NW,310,0.0,1.0,80,0.00,,,0.00,Wunderground v.1.15,2013-03-16 22:14:00,
2013-03-16 18:20:00,40.6,35.2,29.75,NNW,331,1.0,1.0,81,0.00,,,0.00,Wunderground v.1.15,2013-03-16 22:20:00,
2013-03-16 18:25:00,40.3,35.2,29.75,NNW,333,1.0,3.0,82,0.00,,,0.00,Wunderground v.1.15,2013-03-16 22:25:00,
2013-03-16 18:31:00,40.1,35.4,29.76,NNE,12,0.0,1.0,83,0.00,,,0.00,Wunderground v.1.15,2013-03-16 22:31:00,
2013-03-16 18:36:00,39.6,34.9,29.77,NW,315,1.0,4.0,83,0.00,,,0.00,Wunderground v.1.15,2013-03-16 22:36:00,
2013-03-16 18:41:00,39.3,34.9,29.76,NE,39,2.0,2.0,84,0.00,,,0.00,Wunderground v.1.15,2013-03-16 22:41:00,
2013-03-16 18:46:00,39.2,34.8,29.77,NW,324,1.0,2.0,84,0.00,,,0.00,Wunderground v.1.15,2013-03-16 22:46:00,
2013-03-16 18:52:00,38.9,34.5,29.77,NW,316,1.0,3.0,84,0.00,,,0.00,Wunderground v.1.15,2013-03-16 22:52:00,
2013-03-16 18:57:00,38.6,34.5,29.78,WNW,294,1.0,4.0,85,0.00,,,0.00,Wunderground v.1.15,2013-03-16 22:57:00,
2013-03-16 19:02:00,38.3,34.2,29.79,NW,322,1.0,9.0,85,0.00,,,0.00,Wunderground v.1.15,2013-03-16 23:02:00,
2013-03-16 19:07:00,38.0,34.2,29.79,NW,319,1.0,9.0,86,0.00,,,0.00,Wunderground v.1.15,2013-03-16 23:07:00,
2013-03-16 19:13:00,37.9,34.1,29.79,NW,319,1.0,1.0,86,0.00,,,0.00,Wunderground v.1.15,2013-03-16 23:13:00,
2013-03-16 19:18:00,37.9,34.4,29.79,NW,319,0.0,1.0,87,0.00,,,0.00,Wunderground v.1.15,2013-03-16 23:18:00,
2013-03-16 19:24:00,37.8,34.3,29.80,NW,319,0.0,1.0,87,0.00,,,0.00,Wunderground v.1.15,2013-03-16 23:24:00,
2013-03-16 19:29:00,37.8,34.3,29.80,NW,319,1.0,2.0,87,0.00,,,0.00,Wunderground v.1.15,2013-03-16 23:29:00,
2013-03-16 19:34:00,37.8,34.3,29.81,NW,319,1.0,2.0,87,0.00,,,0.00,Wunderground v.1.15,2013-03-16 23:34:00,
2013-03-16 19:39:00,37.8,34.0,29.81,NW,319,0.0,2.0,86,0.00,,,0.00,Wunderground v.1.15,2013-03-16 23:39:00,
2013-03-16 19:44:00,37.8,34.3,29.81,NW,319,0.0,0.0,87,0.00,,,0.00,Wunderground v.1.15,2013-03-16 23:44:00,
2013-03-16 19:50:00,37.8,34.3,29.81,NW,319,0.0,0.0,87,0.00,,,0.00,Wunderground v.1.15,2013-03-16 23:50:00,
2013-03-16 19:55:00,37.8,34.3,29.82,NW,319,0.0,0.0,87,0.00,,,0.00,Wunderground v.1.15,2013-03-16 23:55:00,
2013-03-16 20:00:00,37.8,34.3,29.83,NW,319,0.0,0.0,87,0.00,,,0.00,Wunderground v.1.15,2013-03-17 00:00:00,
2013-03-16 20:06:00,37.6,33.8,29.83,NW,319,0.0,6.0,86,0.00,,,0.00,Wunderground v.1.15,2013-03-17 00:06:00,
2013-03-16 20:11:00,37.5,34.0,29.84,NW,319,0.0,0.0,87,0.00,,,0.00,Wunderground v.1.15,2013-03-17 00:11:00,
2013-03-16 20:16:00,37.5,33.7,29.84,NW,319,0.0,2.0,86,0.00,,,0.00,Wunderground v.1.15,2013-03-17 00:16:00,
2013-03-16 20:22:00,37.5,33.7,29.85,NNW,335,1.0,2.0,86,0.00,,,0.00,Wunderground v.1.15,2013-03-17 00:22:00,
2013-03-16 20:27:00,37.3,33.5,29.85,NNW,335,1.0,2.0,86,0.00,,,0.00,Wunderground v.1.15,2013-03-17 00:27:00,
2013-03-16 20:32:00,37.0,33.2,29.85,NNW,335,1.0,1.0,86,0.00,,,0.00,Wunderground v.1.15,2013-03-17 00:32:00,
2013-03-16 20:37:00,36.9,33.1,29.86,NNW,335,1.0,1.0,86,0.00,,,0.00,Wunderground v.1.15,2013-03-17 00:37:00,
2013-03-16 20:43:00,36.6,32.8,29.86,NW,320,0.0,4.0,86,0.00,,,0.00,Wunderground v.1.15,2013-03-17 00:43:00,
2013-03-16 20:48:00,36.3,32.8,29.87,NW,316,0.0,4.0,87,0.00,,,0.00,Wunderground v.1.15,2013-03-17 00:48:00,
2013-03-16 20:54:00,36.2,32.7,29.88,NW,318,0.0,0.0,87,0.00,,,0.00,Wunderground v.1.15,2013-03-17 00:54:00,
2013-03-16 20:59:00,36.2,32.7,29.88,NW,318,0.0,0.0,87,0.00,,,0.00,Wunderground v.1.15,2013-03-17 00:59:00,
2013-03-16 21:04:00,36.2,32.7,29.89,NW,319,0.0,4.0,87,0.00,,,0.00,Wunderground v.1.15,2013-03-17 01:04:00,
2013-03-16 21:09:00,36.2,32.7,29.89,NW,319,0.0,4.0,87,0.00,,,0.00,Wunderground v.1.15,2013-03-17 01:09:00,
2013-03-16 21:15:00,35.9,32.7,29.89,NW,319,0.0,0.0,88,0.00,,,0.00,Wunderground v.1.15,2013-03-17 01:15:00,
2013-03-16 21:20:00,35.9,32.7,29.89,NW,319,0.0,0.0,88,0.00,,,0.00,Wunderground v.1.15,2013-03-17 01:20:00,
2013-03-16 21:25:00,35.9,32.7,29.89,NW,319,0.0,0.0,88,0.00,,,0.00,Wunderground v.1.15,2013-03-17 01:25:00,
2013-03-16 21:30:00,35.9,32.7,29.90,NW,319,0.0,0.0,88,0.00,,,0.00,Wunderground v.1.15,2013-03-17 01:30:00,
2013-03-16 21:36:00,35.9,33.0,29.90,NW,319,0.0,1.0,89,0.00,,,0.00,Wunderground v.1.15,2013-03-17 01:36:00,
2013-03-16 21:41:00,35.9,32.7,29.90,NW,319,0.0,0.0,88,0.00,,,0.00,Wunderground v.1.15,2013-03-17 01:41:00,
2013-03-16 21:47:00,35.9,33.0,29.91,NW,319,0.0,0.0,89,0.00,,,0.00,Wunderground v.1.15,2013-03-17 01:47:00,
2013-03-16 21:52:00,35.9,32.7,29.92,NW,319,0.0,0.0,88,0.00,,,0.00,Wunderground v.1.15,2013-03-17 01:52:00,
2013-03-16 21:58:00,35.9,32.7,29.92,NW,319,0.0,0.0,88,0.00,,,0.00,Wunderground v.1.15,2013-03-17 01:58:00,
2013-03-16 22:03:00,35.9,32.7,29.92,NW,319,0.0,4.0,88,0.00,,,0.00,Wunderground v.1.15,2013-03-17 02:03:00,
2013-03-16 22:08:00,35.9,32.7,29.92,NW,319,0.0,4.0,88,0.00,,,0.00,Wunderground v.1.15,2013-03-17 02:08:00,
2013-03-16 22:13:00,35.9,32.7,29.93,NW,319,0.0,0.0,88,0.00,,,0.00,Wunderground v.1.15,2013-03-17 02:13:00,
2013-03-16 22:19:00,35.9,32.7,29.93,NW,319,0.0,0.0,88,0.00,,,0.00,Wunderground v.1.15,2013-03-17 02:19:00,
2013-03-16 22:24:00,35.8,32.6,29.93,NW,319,0.0,0.0,88,0.00,,,0.00,Wunderground v.1.15,2013-03-17 02:24:00,
2013-03-16 22:30:00,35.8,32.6,29.94,NW,319,0.0,0.0,88,0.00,,,0.00,Wunderground v.1.15,2013-03-17 02:30:00,
2013-03-16 22:35:00,35.8,32.6,29.94,NW,319,0.0,2.0,88,0.00,,,0.00,Wunderground v.1.15,2013-03-17 02:35:00,
2013-03-16 22:40:00,35.8,32.6,29.94,NW,319,0.0,0.0,88,0.00,,,0.00,Wunderground v.1.15,2013-03-17 02:40:00,
2013-03-16 22:45:00,35.6,32.4,29.94,NW,319,0.0,1.0,88,0.00,,,0.00,Wunderground v.1.15,2013-03-17 02:45:00,
2013-03-16 22:51:00,35.6,32.4,29.94,NW,319,0.0,0.0,88,0.00,,,0.00,Wunderground v.1.15,2013-03-17 02:51:00,
2013-03-16 22:57:00,35.6,32.4,29.94,NE,52,0.0,3.0,88,0.00,,,0.00,Wunderground v.1.15,2013-03-17 02:57:00,
2013-03-16 23:02:00,35.5,32.3,29.94,NE,55,0.0,2.0,88,0.00,,,0.00,Wunderground v.1.15,2013-03-17 03:02:00,
2013-03-16 23:08:00,35.5,32.3,29.94,NE,55,0.0,2.0,88,0.00,,,0.00,Wunderground v.1.15,2013-03-17 03:08:00,
2013-03-16 23:14:00,35.5,32.3,29.94,NE,55,0.0,0.0,88,0.00,,,0.00,Wunderground v.1.15,2013-03-17 03:14:00,
2013-03-16 23:19:00,35.5,32.3,29.94,NE,55,0.0,0.0,88,0.00,,,0.00,Wunderground v.1.15,2013-03-17 03:19:00,
2013-03-16 23:24:00,35.5,32.3,29.94,NE,55,0.0,0.0,88,0.00,,,0.00,Wunderground v.1.15,2013-03-17 03:24:00,
2013-03-16 23:30:00,35.5,32.3,29.94,NE,55,0.0,0.0,88,0.00,,,0.00,Wunderground v.1.15,2013-03-17 03:30:00,
2013-03-16 23:35:00,35.5,32.3,29.94,NE,55,0.0,1.0,88,0.00,,,0.00,Wunderground v.1.15,2013-03-17 03:35:00,
2013-03-16 23:40:00,35.5,32.3,29.94,NE,55,0.0,0.0,88,0.00,,,0.00,Wunderground v.1.15,2013-03-17 03:40:00,
2013-03-16 23:45:00,35.3,32.4,29.94,NE,55,0.0,0.0,89,0.00,,,0.00,Wunderground v.1.15,2013-03-17 03:45:00,
2013-03-16 23:50:00,35.3,32.4,29.95,NE,55,0.0,0.0,89,0.00,,,0.00,Wunderground v.1.15,2013-03-17 03:50:00,
2013-03-16 23:56:00,35.3,32.4,29.94,NE,55,0.0,0.0,89,0.00,,,0.00,Wunderground v.1.15,2013-03-17 03:56:00,